User: anonymous   Login
Location: Unspecified
(0.0000°N, 0.0000°E)
Time: 10:14:19
(UTC+00:00)
Language:

NOAA 19 - Orbit

View from above orbital plane
View from above orbital plane
View from above satellite
View from above satellite

Ground track
Ground track

The orbit data is extracted from the following two-line orbital elements,

1 33591U 09005A   17116.90156013  .00000123  00000-0  92020-4 0  9999
2 33591 099.0879 083.0123 0014946 058.6504 301.6127 14.12174214423156
Epoch (UTC): 26 April 2017 21:38:14
Eccentricity: 0.0014946
inclination: 99.0879°
perigee height: 841 km
apogee height: 863 km
right ascension of ascending node: 83.0123°
argument of perigee: 58.6504°
revolutions per day: 14.12174214
mean anomaly at epoch: 301.6127°
orbit number at epoch: 42315

The dashed part of the orbit path shows where the satellite is in the earth's shadow,  

DLR